Year,Month,Day,Hour,Minute,Value (Times are PST for temperature in C)
2015,04,14,00,00,5.10
2015,04,14,00,01,5.10
2015,04,14,00,02,5.10
2015,04,14,00,03,5.10
2015,04,14,00,04,5.10
2015,04,14,00,05,5.10
2015,04,14,00,06,5.10
2015,04,14,00,07,5.10
2015,04,14,00,08,5.10
2015,04,14,00,09,5.10
2015,04,14,00,10,5.10
2015,04,14,00,11,5.10
2015,04,14,00,12,5.10
2015,04,14,00,13,5.00
2015,04,14,00,14,5.00
2015,04,14,00,15,5.00
2015,04,14,00,16,5.00
2015,04,14,00,17,5.00
2015,04,14,00,18,5.10
2015,04,14,00,19,5.10
2015,04,14,00,20,5.10
2015,04,14,00,21,5.00
2015,04,14,00,22,5.00
2015,04,14,00,23,5.00
2015,04,14,00,24,5.00
2015,04,14,00,25,5.00
2015,04,14,00,26,5.00
2015,04,14,00,27,5.00
2015,04,14,00,28,5.00
2015,04,14,00,29,5.00
2015,04,14,00,30,5.00
2015,04,14,00,31,5.00
2015,04,14,00,32,5.00
2015,04,14,00,33,5.00
2015,04,14,00,34,5.00
2015,04,14,00,35,5.00
2015,04,14,00,36,5.00
2015,04,14,00,37,5.10
2015,04,14,00,38,5.10
2015,04,14,00,39,5.00
2015,04,14,00,40,5.00
2015,04,14,00,41,5.00
2015,04,14,00,42,5.00
2015,04,14,00,43,5.00
2015,04,14,00,44,4.90
2015,04,14,00,45,4.90
2015,04,14,00,46,4.90
2015,04,14,00,47,4.90
2015,04,14,00,48,4.90
2015,04,14,00,49,4.80
2015,04,14,00,50,4.80
2015,04,14,00,51,4.80
2015,04,14,00,52,4.80
2015,04,14,00,53,4.80
2015,04,14,00,54,4.80
2015,04,14,00,55,4.70
2015,04,14,00,56,4.70
2015,04,14,00,57,4.70
2015,04,14,00,58,4.70
2015,04,14,00,59,4.70
2015,04,14,01,00,4.70
2015,04,14,01,01,4.70
2015,04,14,01,02,4.70
2015,04,14,01,03,4.70
2015,04,14,01,04,4.70
2015,04,14,01,05,4.60
2015,04,14,01,06,4.60
2015,04,14,01,07,4.60
2015,04,14,01,08,4.60
2015,04,14,01,09,4.70
2015,04,14,01,10,4.70
2015,04,14,01,11,4.70
2015,04,14,01,12,4.70
2015,04,14,01,13,4.70
2015,04,14,01,14,4.70
2015,04,14,01,15,4.70
2015,04,14,01,16,4.70
2015,04,14,01,17,4.70
2015,04,14,01,18,4.70
2015,04,14,01,19,4.70
2015,04,14,01,20,4.70
2015,04,14,01,21,4.70
2015,04,14,01,22,4.70
2015,04,14,01,23,4.70
2015,04,14,01,24,4.70
2015,04,14,01,25,4.70
2015,04,14,01,26,4.70
2015,04,14,01,27,4.70
2015,04,14,01,28,4.70
2015,04,14,01,29,4.70
2015,04,14,01,30,4.70
2015,04,14,01,31,4.70
2015,04,14,01,32,4.70
2015,04,14,01,33,4.60
2015,04,14,01,34,4.70
2015,04,14,01,35,4.60
2015,04,14,01,36,4.70
2015,04,14,01,37,4.70
2015,04,14,01,38,4.70
2015,04,14,01,39,4.70
2015,04,14,01,40,4.70
2015,04,14,01,41,4.70
2015,04,14,01,42,4.60
2015,04,14,01,43,4.60
2015,04,14,01,44,4.60
2015,04,14,01,45,4.60
2015,04,14,01,46,4.60
2015,04,14,01,47,4.60
2015,04,14,01,48,4.60
2015,04,14,01,49,4.60
2015,04,14,01,50,4.60
2015,04,14,01,51,4.60
2015,04,14,01,52,4.60
2015,04,14,01,53,4.60
2015,04,14,01,54,4.60
2015,04,14,01,55,4.60
2015,04,14,01,56,4.60
2015,04,14,01,57,4.60
2015,04,14,01,58,4.60
2015,04,14,01,59,4.60
2015,04,14,02,00,4.50
2015,04,14,02,01,4.50
2015,04,14,02,02,4.50
2015,04,14,02,03,4.40
2015,04,14,02,04,4.40
2015,04,14,02,05,4.40
2015,04,14,02,06,4.40
2015,04,14,02,07,4.40
2015,04,14,02,08,4.40
2015,04,14,02,09,4.30
2015,04,14,02,10,4.30
2015,04,14,02,11,4.30
2015,04,14,02,12,4.30
2015,04,14,02,13,4.30
2015,04,14,02,14,4.30
2015,04,14,02,15,4.30
2015,04,14,02,16,4.30
2015,04,14,02,17,4.30
2015,04,14,02,18,4.30
2015,04,14,02,19,4.20
2015,04,14,02,20,4.20
2015,04,14,02,21,4.20
2015,04,14,02,22,4.10
2015,04,14,02,23,4.10
2015,04,14,02,24,4.00
2015,04,14,02,25,4.00
2015,04,14,02,26,4.00
2015,04,14,02,27,3.90
2015,04,14,02,28,3.90
2015,04,14,02,29,3.80
2015,04,14,02,30,3.80
2015,04,14,02,31,3.80
2015,04,14,02,32,3.80
2015,04,14,02,33,3.70
2015,04,14,02,34,3.70
2015,04,14,02,35,3.70
2015,04,14,02,36,3.60
2015,04,14,02,37,3.60
2015,04,14,02,38,3.60
2015,04,14,02,39,3.60
2015,04,14,02,40,3.60
2015,04,14,02,41,3.50
2015,04,14,02,42,3.50
2015,04,14,02,43,3.50
2015,04,14,02,44,3.60
2015,04,14,02,45,3.60
2015,04,14,02,46,3.60
2015,04,14,02,47,3.50
2015,04,14,02,48,3.50
2015,04,14,02,49,3.40
2015,04,14,02,50,3.40
2015,04,14,02,51,3.40
2015,04,14,02,52,3.40
2015,04,14,02,53,3.30
2015,04,14,02,54,3.30
2015,04,14,02,55,3.30
2015,04,14,02,56,3.30
2015,04,14,02,57,3.30
2015,04,14,02,58,3.20
2015,04,14,02,59,3.20
2015,04,14,03,00,3.20
2015,04,14,03,01,3.10
2015,04,14,03,02,3.10
2015,04,14,03,03,3.10
2015,04,14,04,02,3.20
2015,04,14,04,03,3.20
2015,04,14,04,04,3.20
2015,04,14,04,05,3.20
2015,04,14,04,06,3.20
2015,04,14,04,07,3.20
2015,04,14,04,08,3.20
2015,04,14,04,09,3.10
2015,04,14,04,10,3.10
2015,04,14,04,11,3.00
2015,04,14,04,12,3.00
2015,04,14,04,13,3.00
2015,04,14,04,14,2.90
2015,04,14,04,15,2.90
2015,04,14,04,16,2.80
2015,04,14,04,17,2.80
2015,04,14,04,18,2.80
2015,04,14,04,19,2.80
2015,04,14,04,20,2.80
2015,04,14,04,21,2.70
2015,04,14,04,22,2.70
2015,04,14,04,23,2.70
2015,04,14,04,24,2.70
2015,04,14,04,25,2.70
2015,04,14,04,26,2.60
2015,04,14,04,27,2.60
2015,04,14,04,28,2.60
2015,04,14,04,29,2.60
2015,04,14,04,30,2.60
2015,04,14,04,31,2.60
2015,04,14,04,32,2.60
2015,04,14,04,33,2.60
2015,04,14,04,34,2.60
2015,04,14,04,35,2.60
2015,04,14,04,36,2.50
2015,04,14,04,37,2.50
2015,04,14,04,38,2.50
2015,04,14,04,39,2.50
2015,04,14,04,40,2.50
2015,04,14,04,41,2.50
2015,04,14,04,42,2.50
2015,04,14,04,43,2.50
2015,04,14,04,44,2.50
2015,04,14,04,45,2.40
2015,04,14,04,46,2.40
2015,04,14,04,47,2.40
2015,04,14,04,48,2.40
2015,04,14,04,49,2.40
2015,04,14,04,50,2.40
2015,04,14,04,51,2.40
2015,04,14,04,52,2.40
2015,04,14,04,53,2.40
2015,04,14,04,54,2.40
2015,04,14,04,55,2.40
2015,04,14,04,56,2.40
2015,04,14,04,57,2.40
2015,04,14,04,58,2.40
2015,04,14,04,59,2.40
2015,04,14,05,00,2.40
2015,04,14,05,01,2.40
2015,04,14,05,02,2.40
2015,04,14,05,03,2.30
2015,04,14,05,04,2.30
2015,04,14,05,05,2.30
2015,04,14,05,06,2.30
2015,04,14,05,07,2.30
2015,04,14,05,08,2.30
2015,04,14,05,09,2.30
2015,04,14,05,10,2.30
2015,04,14,05,11,2.40
2015,04,14,05,12,2.40
2015,04,14,05,13,2.40
2015,04,14,05,14,2.40
2015,04,14,05,15,2.50
2015,04,14,05,16,2.50
2015,04,14,05,17,2.50
2015,04,14,05,18,2.60
2015,04,14,05,19,2.60
2015,04,14,05,20,2.60
2015,04,14,05,21,2.60
2015,04,14,05,22,2.60
2015,04,14,05,23,2.60
2015,04,14,05,24,2.70
2015,04,14,05,25,2.70
2015,04,14,05,26,2.70
2015,04,14,05,27,2.70
2015,04,14,05,28,2.70
2015,04,14,05,29,2.60
2015,04,14,05,30,2.60
2015,04,14,05,31,2.60
2015,04,14,05,32,2.50
2015,04,14,05,33,2.50
2015,04,14,05,34,2.40
2015,04,14,05,35,2.40
2015,04,14,05,36,2.30
2015,04,14,05,37,2.30
2015,04,14,05,38,2.30
2015,04,14,05,39,2.30
2015,04,14,05,40,2.30
2015,04,14,05,41,2.20
2015,04,14,05,42,2.20
2015,04,14,05,43,2.20
2015,04,14,05,44,2.20
2015,04,14,05,45,2.20
2015,04,14,05,46,2.10
2015,04,14,05,47,2.10
2015,04,14,05,48,2.10
2015,04,14,05,49,2.00
2015,04,14,05,50,2.00
2015,04,14,05,51,1.90
2015,04,14,05,52,1.90
2015,04,14,05,53,1.90
2015,04,14,05,54,1.80
2015,04,14,05,55,1.80
2015,04,14,05,56,1.80
2015,04,14,05,57,1.80
2015,04,14,05,58,1.70
2015,04,14,05,59,1.70
2015,04,14,06,00,1.70
2015,04,14,06,01,1.70
2015,04,14,06,02,1.60
2015,04,14,06,03,1.60
2015,04,14,06,04,1.60
2015,04,14,06,05,1.60
2015,04,14,06,06,1.60
2015,04,14,06,07,1.60
2015,04,14,06,08,1.50
2015,04,14,06,09,1.50
2015,04,14,06,10,1.50
2015,04,14,06,11,1.40
2015,04,14,06,12,1.40
2015,04,14,06,13,1.40
2015,04,14,06,14,1.30
2015,04,14,06,15,1.30
2015,04,14,06,16,1.40
2015,04,14,06,17,1.50
2015,04,14,06,18,1.50
2015,04,14,06,19,1.60
2015,04,14,06,20,1.60
2015,04,14,06,21,1.60
2015,04,14,06,22,1.70
2015,04,14,06,23,1.80
2015,04,14,06,24,1.80
2015,04,14,06,25,1.90
2015,04,14,06,26,2.00
2015,04,14,06,27,2.10
2015,04,14,06,28,2.10
2015,04,14,06,29,2.10
2015,04,14,06,30,2.20
2015,04,14,06,31,2.20
2015,04,14,06,32,2.30
2015,04,14,06,33,2.30
2015,04,14,06,34,2.30
2015,04,14,06,35,2.30
2015,04,14,06,36,2.20
2015,04,14,06,37,2.20
2015,04,14,06,38,2.20
2015,04,14,06,39,2.20
2015,04,14,06,40,2.10
2015,04,14,06,41,2.10
2015,04,14,06,42,2.00
2015,04,14,06,43,1.90
2015,04,14,06,44,1.90
2015,04,14,06,45,1.80
2015,04,14,06,46,1.80
2015,04,14,06,47,1.70
2015,04,14,06,48,1.70
2015,04,14,06,49,1.70
2015,04,14,06,50,1.60
2015,04,14,06,51,1.60
2015,04,14,06,52,1.50
2015,04,14,06,53,1.50
2015,04,14,06,54,1.50
2015,04,14,06,55,1.50
2015,04,14,06,56,1.50
2015,04,14,06,57,1.50
2015,04,14,06,58,1.50
2015,04,14,06,59,1.50
2015,04,14,07,00,1.50
2015,04,14,07,01,1.40
2015,04,14,07,02,1.40
2015,04,14,07,03,1.40
2015,04,14,07,04,1.40
2015,04,14,07,05,1.50
2015,04,14,07,06,1.50
2015,04,14,07,07,1.50
2015,04,14,07,08,1.60
2015,04,14,07,09,1.60
2015,04,14,07,10,1.60
2015,04,14,07,11,1.60
2015,04,14,07,12,1.70
2015,04,14,07,13,1.70
2015,04,14,07,14,1.80
2015,04,14,07,15,1.80
2015,04,14,07,16,1.80
2015,04,14,07,17,1.80
2015,04,14,07,18,1.80
2015,04,14,07,19,1.90
2015,04,14,07,20,1.90
2015,04,14,07,21,1.90
2015,04,14,07,22,2.00
2015,04,14,07,23,2.00
2015,04,14,07,24,2.10
2015,04,14,07,25,2.20
2015,04,14,07,26,2.20
2015,04,14,07,27,2.30
2015,04,14,07,28,2.40
2015,04,14,07,29,2.50
2015,04,14,07,30,2.60
2015,04,14,07,31,2.60
2015,04,14,07,32,2.70
2015,04,14,07,33,2.80
2015,04,14,07,34,2.90
2015,04,14,07,35,2.90
2015,04,14,07,36,3.00
2015,04,14,07,37,3.10
2015,04,14,07,38,3.20
2015,04,14,07,39,3.30
2015,04,14,07,40,3.30
2015,04,14,07,41,3.30
2015,04,14,07,42,3.40
2015,04,14,07,43,3.40
2015,04,14,07,44,3.40
2015,04,14,07,45,3.50
2015,04,14,07,46,3.50
2015,04,14,07,47,3.60
2015,04,14,07,48,3.60
2015,04,14,07,49,3.70
2015,04,14,07,50,3.70
2015,04,14,07,51,3.80
2015,04,14,07,52,3.80
2015,04,14,07,53,3.80
2015,04,14,07,54,3.90
2015,04,14,07,55,3.90
2015,04,14,07,56,4.00
2015,04,14,07,57,4.00
2015,04,14,07,58,4.00
2015,04,14,07,59,4.10
2015,04,14,08,00,4.10
2015,04,14,08,01,4.10
2015,04,14,08,02,4.20
2015,04,14,08,03,4.20
2015,04,14,08,04,4.20
2015,04,14,08,05,4.30
2015,04,14,08,06,4.30
2015,04,14,08,07,4.40
2015,04,14,08,08,4.50
2015,04,14,08,09,4.60
2015,04,14,08,10,4.60
2015,04,14,08,11,4.70
2015,04,14,08,12,4.80
2015,04,14,08,13,4.80
2015,04,14,08,14,4.90
2015,04,14,08,15,5.00
2015,04,14,08,16,5.10
2015,04,14,08,17,5.10
2015,04,14,08,18,5.20
2015,04,14,08,19,5.20
2015,04,14,08,20,5.30
2015,04,14,08,21,5.30
2015,04,14,08,22,5.30
2015,04,14,08,23,5.40
2015,04,14,08,24,5.40
2015,04,14,08,25,5.40
2015,04,14,08,26,5.40
2015,04,14,08,27,5.50
2015,04,14,08,28,5.50
2015,04,14,08,29,5.60
2015,04,14,08,30,5.60
2015,04,14,08,31,5.70
2015,04,14,08,32,5.70
2015,04,14,08,33,5.80
2015,04,14,08,34,5.80
2015,04,14,08,35,5.90
2015,04,14,08,36,5.90
2015,04,14,08,37,5.90
2015,04,14,08,38,6.00
2015,04,14,08,39,6.00
2015,04,14,08,40,6.00
2015,04,14,08,41,6.00
2015,04,14,08,42,6.00
2015,04,14,08,43,6.00
2015,04,14,08,44,6.00
2015,04,14,08,45,6.00
2015,04,14,08,46,6.00
2015,04,14,08,47,6.00
2015,04,14,08,48,6.00
2015,04,14,08,49,6.00
2015,04,14,08,50,6.00
2015,04,14,08,51,6.00
2015,04,14,08,52,6.00
2015,04,14,08,53,6.00
2015,04,14,08,54,6.10
2015,04,14,08,55,6.10
2015,04,14,08,56,6.10
2015,04,14,08,57,6.10
2015,04,14,08,58,6.10
2015,04,14,08,59,6.10
2015,04,14,09,00,6.10
2015,04,14,09,01,6.10
2015,04,14,09,02,6.10
2015,04,14,09,03,6.10
2015,04,14,09,04,6.10
2015,04,14,09,05,6.10
2015,04,14,09,06,6.20
2015,04,14,09,07,6.20
2015,04,14,09,08,6.20
2015,04,14,09,09,6.20
2015,04,14,09,10,6.20
2015,04,14,09,11,6.20
2015,04,14,09,12,6.20
2015,04,14,09,13,6.20
2015,04,14,09,14,6.20
2015,04,14,09,15,6.20
2015,04,14,09,16,6.20
2015,04,14,09,17,6.20
2015,04,14,09,18,6.20
2015,04,14,09,19,6.20
2015,04,14,09,20,6.20
2015,04,14,09,21,6.30
2015,04,14,09,22,6.30
2015,04,14,09,23,6.30
2015,04,14,09,24,6.30
2015,04,14,09,25,6.40
2015,04,14,09,26,6.40
2015,04,14,09,27,6.40
2015,04,14,09,28,6.50
2015,04,14,09,29,6.50
2015,04,14,09,30,6.60
2015,04,14,09,31,6.60
2015,04,14,09,32,6.60
2015,04,14,09,33,6.60
2015,04,14,09,34,6.60
2015,04,14,09,35,6.70
2015,04,14,09,36,6.70
2015,04,14,09,37,6.70
2015,04,14,09,38,6.70
2015,04,14,09,39,6.60
2015,04,14,09,40,6.60
2015,04,14,09,41,6.60
2015,04,14,09,42,6.60
2015,04,14,09,43,6.60
2015,04,14,09,44,6.60
2015,04,14,09,45,6.70
2015,04,14,09,46,6.70
2015,04,14,09,47,6.70
2015,04,14,09,48,6.80
2015,04,14,09,49,6.80
2015,04,14,09,50,6.90
2015,04,14,09,51,6.90
2015,04,14,09,52,6.90
2015,04,14,09,53,7.00
2015,04,14,09,54,7.00
2015,04,14,09,55,7.00
2015,04,14,09,56,7.00
2015,04,14,09,57,7.10
2015,04,14,09,58,7.00
2015,04,14,09,59,7.00
2015,04,14,10,00,7.00
2015,04,14,10,01,7.00
2015,04,14,10,02,7.00
2015,04,14,10,03,7.00
2015,04,14,10,04,7.10
2015,04,14,10,05,7.10
2015,04,14,10,06,7.20
2015,04,14,10,07,7.20
2015,04,14,10,08,7.20
2015,04,14,10,09,7.20
2015,04,14,10,10,7.30
2015,04,14,10,11,7.30
2015,04,14,10,12,7.40
2015,04,14,10,13,7.40
2015,04,14,10,14,7.40
2015,04,14,10,15,7.50
2015,04,14,10,16,7.60
2015,04,14,10,17,7.60
2015,04,14,10,18,7.70
2015,04,14,10,19,7.70
2015,04,14,10,20,7.80
2015,04,14,10,21,7.80
2015,04,14,10,22,7.80
2015,04,14,10,23,7.80
2015,04,14,10,24,7.80
2015,04,14,10,25,7.80
2015,04,14,10,26,7.80
2015,04,14,10,27,7.80
2015,04,14,10,28,7.80
2015,04,14,10,29,7.70
2015,04,14,10,30,7.70
2015,04,14,10,31,7.70
2015,04,14,10,32,7.80
2015,04,14,10,33,7.80
2015,04,14,10,34,7.90
2015,04,14,10,35,8.00
2015,04,14,10,36,8.10
2015,04,14,10,37,8.10
2015,04,14,10,38,8.10
2015,04,14,10,39,8.10
2015,04,14,10,40,8.20
2015,04,14,10,41,8.20
2015,04,14,10,42,8.30
2015,04,14,10,43,8.30
2015,04,14,10,44,8.30
2015,04,14,10,45,8.30
2015,04,14,10,46,8.20
2015,04,14,10,47,8.20
2015,04,14,10,48,8.20
2015,04,14,10,49,8.30
2015,04,14,10,50,8.30
2015,04,14,10,51,8.30
2015,04,14,10,52,8.30
2015,04,14,10,53,8.40
2015,04,14,10,54,8.40
2015,04,14,10,55,8.50
2015,04,14,10,56,8.50
2015,04,14,10,57,8.50
2015,04,14,10,58,8.50
2015,04,14,10,59,8.50
2015,04,14,11,00,8.60
2015,04,14,11,01,8.70
2015,04,14,11,02,8.80
2015,04,14,11,03,8.80
2015,04,14,11,04,8.80
2015,04,14,11,05,8.80
2015,04,14,11,06,8.90
2015,04,14,11,07,8.90
2015,04,14,11,08,9.00
2015,04,14,11,09,9.10
2015,04,14,11,10,9.20
2015,04,14,11,11,9.20
2015,04,14,11,12,9.20
2015,04,14,11,13,9.20
2015,04,14,11,14,9.20
2015,04,14,11,15,9.20
2015,04,14,11,16,9.20
2015,04,14,11,17,9.20
2015,04,14,11,18,9.10
2015,04,14,11,19,9.10
2015,04,14,11,20,9.20
2015,04,14,11,21,9.20
2015,04,14,11,22,9.30
2015,04,14,11,23,9.30
2015,04,14,11,24,9.30
2015,04,14,11,25,9.20
2015,04,14,11,26,9.20
2015,04,14,11,27,9.20
2015,04,14,11,28,9.10
2015,04,14,11,29,9.20
2015,04,14,11,30,9.20
2015,04,14,11,31,9.30
2015,04,14,11,32,9.30
2015,04,14,11,33,9.20
2015,04,14,11,34,9.10
2015,04,14,11,35,9.10
2015,04,14,11,36,9.00
2015,04,14,11,37,9.00
2015,04,14,11,38,8.90
2015,04,14,11,39,8.80
2015,04,14,11,40,8.70
2015,04,14,11,41,8.70
2015,04,14,11,42,8.60
2015,04,14,11,43,8.60
2015,04,14,11,44,8.60
2015,04,14,11,45,8.60
2015,04,14,11,46,8.60
2015,04,14,11,47,8.70
2015,04,14,11,48,8.70
2015,04,14,11,49,8.80
2015,04,14,11,50,8.80
2015,04,14,11,51,8.70
2015,04,14,11,52,8.70
2015,04,14,11,53,8.70
2015,04,14,11,54,8.70
2015,04,14,11,55,8.70
2015,04,14,11,56,8.70
2015,04,14,11,57,8.80
2015,04,14,11,58,8.80
2015,04,14,11,59,8.90
2015,04,14,12,00,8.90
2015,04,14,12,01,8.90
2015,04,14,12,02,9.00
2015,04,14,12,03,9.00
2015,04,14,12,04,9.10
2015,04,14,12,05,9.20
2015,04,14,12,06,9.30
2015,04,14,12,07,9.30
2015,04,14,12,08,9.40
2015,04,14,12,09,9.50
2015,04,14,12,10,9.60
2015,04,14,12,11,9.70
2015,04,14,12,12,9.70
2015,04,14,12,13,9.80
2015,04,14,12,14,9.80
2015,04,14,12,15,9.90
2015,04,14,12,16,10.00
2015,04,14,12,17,10.10
2015,04,14,12,18,10.10
2015,04,14,12,19,10.10
2015,04,14,12,20,10.00
2015,04,14,12,21,10.00
2015,04,14,12,22,9.90
2015,04,14,12,23,9.90
2015,04,14,12,24,9.90
2015,04,14,12,25,9.80
2015,04,14,12,26,9.80
2015,04,14,12,27,9.80
2015,04,14,12,28,9.80
2015,04,14,12,29,9.80
2015,04,14,12,30,9.80
2015,04,14,12,31,9.80
2015,04,14,12,32,9.80
2015,04,14,12,33,9.90
2015,04,14,12,34,9.90
2015,04,14,12,35,9.90
2015,04,14,12,36,10.00
2015,04,14,12,37,10.00
2015,04,14,12,38,10.00
2015,04,14,12,39,10.00
2015,04,14,12,40,10.00
2015,04,14,12,41,10.00
2015,04,14,12,42,10.10
2015,04,14,12,43,10.20
2015,04,14,12,44,10.30
2015,04,14,12,45,10.30
2015,04,14,12,46,10.40
2015,04,14,12,47,10.40
2015,04,14,12,48,10.40
2015,04,14,12,49,10.40
2015,04,14,12,50,10.30
2015,04,14,12,51,10.20
2015,04,14,12,52,10.10
2015,04,14,12,53,10.00
2015,04,14,12,54,10.00
2015,04,14,12,55,9.90
2015,04,14,12,56,9.80
2015,04,14,12,57,9.80
2015,04,14,12,58,9.80
2015,04,14,12,59,9.80
2015,04,14,13,00,9.80
2015,04,14,13,01,9.90
2015,04,14,13,02,9.90
2015,04,14,13,03,10.00
2015,04,14,13,04,10.00
2015,04,14,13,05,10.10
2015,04,14,13,06,10.20
2015,04,14,13,07,10.30
2015,04,14,13,08,10.30
2015,04,14,13,09,10.40
2015,04,14,13,10,10.50
2015,04,14,13,11,10.60
2015,04,14,13,12,10.60
2015,04,14,13,13,10.60
2015,04,14,13,14,10.50
2015,04,14,13,15,10.40
2015,04,14,13,16,10.30
2015,04,14,13,17,10.20
2015,04,14,13,18,10.20
2015,04,14,13,19,10.30
2015,04,14,13,20,10.30
2015,04,14,13,21,10.20
2015,04,14,13,22,10.10
2015,04,14,13,23,10.10
2015,04,14,13,24,10.10
2015,04,14,13,25,10.00
2015,04,14,13,26,10.00
2015,04,14,13,27,9.90
2015,04,14,13,28,9.90
2015,04,14,13,29,9.80
2015,04,14,13,30,9.80
2015,04,14,13,31,9.80
2015,04,14,13,32,9.80
2015,04,14,13,33,9.80
2015,04,14,13,34,9.80
2015,04,14,13,35,9.80
2015,04,14,13,36,9.90
2015,04,14,13,37,9.90
2015,04,14,13,38,9.90
2015,04,14,13,39,9.90
2015,04,14,13,40,9.80
2015,04,14,13,41,9.80
2015,04,14,13,42,9.90
2015,04,14,13,43,9.90
2015,04,14,13,44,9.90
2015,04,14,13,45,9.80
2015,04,14,13,46,9.80
2015,04,14,13,47,9.80
2015,04,14,13,48,9.80
2015,04,14,13,49,9.80
2015,04,14,13,50,9.70
2015,04,14,13,51,9.80
2015,04,14,13,52,9.70
2015,04,14,13,53,9.70
2015,04,14,13,54,9.60
2015,04,14,13,55,9.60
2015,04,14,13,56,9.60
2015,04,14,13,57,9.50
2015,04,14,13,58,9.50
2015,04,14,13,59,9.50
2015,04,14,14,00,9.50
2015,04,14,14,01,9.50
2015,04,14,14,02,9.50
2015,04,14,14,03,9.50
2015,04,14,14,04,9.40
2015,04,14,14,05,9.40
2015,04,14,14,06,9.40
2015,04,14,14,07,9.40
2015,04,14,14,08,9.40
2015,04,14,14,09,9.40
2015,04,14,14,10,9.40
2015,04,14,14,11,9.40
2015,04,14,14,12,9.40
2015,04,14,14,13,9.40
2015,04,14,14,14,9.40
2015,04,14,14,15,9.40
2015,04,14,14,16,9.50
2015,04,14,14,17,9.50
2015,04,14,14,18,9.60
2015,04,14,14,19,9.70
2015,04,14,14,20,9.70
2015,04,14,14,21,9.80
2015,04,14,14,22,9.80
2015,04,14,14,23,9.80
2015,04,14,14,24,9.80
2015,04,14,14,25,9.80
2015,04,14,14,26,9.80
2015,04,14,14,27,9.80
2015,04,14,14,28,9.80
2015,04,14,14,29,9.80
2015,04,14,14,30,9.70
2015,04,14,14,31,9.70
2015,04,14,14,32,9.60
2015,04,14,14,33,9.60
2015,04,14,14,34,9.50
2015,04,14,14,35,9.50
2015,04,14,14,36,9.40
2015,04,14,14,37,9.40
2015,04,14,14,38,9.40
2015,04,14,14,39,9.40
2015,04,14,14,40,9.40
2015,04,14,14,41,9.40
2015,04,14,14,42,9.40
2015,04,14,14,43,9.40
2015,04,14,14,44,9.40
2015,04,14,14,45,9.40
2015,04,14,14,46,9.50
2015,04,14,14,47,9.60
2015,04,14,14,48,9.70
2015,04,14,14,49,9.70
2015,04,14,14,50,9.80
2015,04,14,14,51,9.80
2015,04,14,14,52,9.90
2015,04,14,14,53,9.90
2015,04,14,14,54,10.00
2015,04,14,14,55,10.10
2015,04,14,14,56,10.10
2015,04,14,14,57,10.20
2015,04,14,14,58,10.20
2015,04,14,14,59,10.20
2015,04,14,15,00,10.20
2015,04,14,15,01,10.20
2015,04,14,15,02,10.20
2015,04,14,15,03,10.20
2015,04,14,15,04,10.30
2015,04,14,15,05,10.30
2015,04,14,15,06,10.20
2015,04,14,15,07,10.20
2015,04,14,15,08,10.20
2015,04,14,15,09,10.30
2015,04,14,15,10,10.40
2015,04,14,15,11,10.40
2015,04,14,15,12,10.40
2015,04,14,15,13,10.50
2015,04,14,15,14,10.60
2015,04,14,15,15,10.60
2015,04,14,15,16,10.70
2015,04,14,15,17,10.70
2015,04,14,15,18,10.60
2015,04,14,15,19,10.60
2015,04,14,15,20,10.70
2015,04,14,15,21,10.70
2015,04,14,15,22,10.80
2015,04,14,15,23,10.80
2015,04,14,15,24,10.80
2015,04,14,15,25,10.80
2015,04,14,15,26,10.90
2015,04,14,15,27,10.90
2015,04,14,15,28,10.90
2015,04,14,15,29,10.90
2015,04,14,15,30,10.90
2015,04,14,15,31,10.90
2015,04,14,15,32,10.80
2015,04,14,15,33,10.70
2015,04,14,15,34,10.60
2015,04,14,15,35,10.60
2015,04,14,15,36,10.50
2015,04,14,15,37,10.50
2015,04,14,15,38,10.50
2015,04,14,15,39,10.50
2015,04,14,15,40,10.50
2015,04,14,15,41,10.60
2015,04,14,15,42,10.50
2015,04,14,15,43,10.50
2015,04,14,15,44,10.40
2015,04,14,15,45,10.40
2015,04,14,15,46,10.30
2015,04,14,15,47,10.30
2015,04,14,15,48,10.20
2015,04,14,15,49,10.20
2015,04,14,15,50,10.10
2015,04,14,15,51,10.10
2015,04,14,15,52,10.00
2015,04,14,15,53,9.90
2015,04,14,15,54,9.90
2015,04,14,15,55,9.90
2015,04,14,15,56,9.80
2015,04,14,15,57,9.80
2015,04,14,15,58,9.80
2015,04,14,15,59,9.80
2015,04,14,16,00,9.80
2015,04,14,16,01,9.90
2015,04,14,16,02,9.90
2015,04,14,16,03,9.90
2015,04,14,16,04,9.90
2015,04,14,16,05,10.00
2015,04,14,16,06,10.00
2015,04,14,16,07,10.00
2015,04,14,16,08,10.10
2015,04,14,16,09,10.10
2015,04,14,16,10,10.10
2015,04,14,16,11,10.10
2015,04,14,16,12,10.10
2015,04,14,16,13,10.10
2015,04,14,16,14,10.20
2015,04,14,16,15,10.30
2015,04,14,16,16,10.40
2015,04,14,16,17,10.40
2015,04,14,16,18,10.50
2015,04,14,16,19,10.60
2015,04,14,16,20,10.60
2015,04,14,16,21,10.60
2015,04,14,16,22,10.70
2015,04,14,16,23,10.70
2015,04,14,16,24,10.70
2015,04,14,16,25,10.60
2015,04,14,16,26,10.60
2015,04,14,16,27,10.50
2015,04,14,16,28,10.30
2015,04,14,16,29,10.10
2015,04,14,16,30,9.90
2015,04,14,16,31,9.80
2015,04,14,16,32,9.80
2015,04,14,16,33,9.70
2015,04,14,16,34,9.70
2015,04,14,16,35,9.60
2015,04,14,16,36,9.60
2015,04,14,16,37,9.60
2015,04,14,16,38,9.60
2015,04,14,16,39,9.60
2015,04,14,16,40,9.60
2015,04,14,16,41,9.60
2015,04,14,16,42,9.60
2015,04,14,16,43,9.60
2015,04,14,16,44,9.50
2015,04,14,16,45,9.50
2015,04,14,16,46,9.50
2015,04,14,16,47,9.40
2015,04,14,16,48,9.40
2015,04,14,16,49,9.40
2015,04,14,16,50,9.40
2015,04,14,16,51,9.50
2015,04,14,16,52,9.50
2015,04,14,16,53,9.50
2015,04,14,16,54,9.50
2015,04,14,16,55,9.50
2015,04,14,16,56,9.50
2015,04,14,16,57,9.50
2015,04,14,16,58,9.60
2015,04,14,16,59,9.60
2015,04,14,17,00,9.60
2015,04,14,17,01,9.70
2015,04,14,17,02,9.70
2015,04,14,17,03,9.70
2015,04,14,17,04,9.80
2015,04,14,17,05,9.80
2015,04,14,17,06,9.90
2015,04,14,17,07,9.90
2015,04,14,17,08,9.90
2015,04,14,17,09,9.90
2015,04,14,17,10,10.00
2015,04,14,17,11,10.00
2015,04,14,17,12,10.10
2015,04,14,17,13,10.10
2015,04,14,17,14,10.10
2015,04,14,17,15,10.20
2015,04,14,17,16,10.20
2015,04,14,17,17,10.20
2015,04,14,17,18,10.20
2015,04,14,17,19,10.20
2015,04,14,17,20,10.30
2015,04,14,17,21,10.30
2015,04,14,17,22,10.30
2015,04,14,17,23,10.30
2015,04,14,17,24,10.30
2015,04,14,17,25,10.40
2015,04,14,17,26,10.50
2015,04,14,17,27,10.60
2015,04,14,17,28,10.60
2015,04,14,17,29,10.70
2015,04,14,17,30,10.70
2015,04,14,17,31,10.80
2015,04,14,17,32,10.80
2015,04,14,17,33,10.90
2015,04,14,17,34,11.00
2015,04,14,17,35,11.00
2015,04,14,17,36,11.00
2015,04,14,17,37,11.00
2015,04,14,17,38,11.00
2015,04,14,17,39,11.10
2015,04,14,17,40,11.10
2015,04,14,17,41,11.20
2015,04,14,17,42,11.20
2015,04,14,17,43,11.20
2015,04,14,17,44,11.20
2015,04,14,17,45,11.20
2015,04,14,17,46,11.30
2015,04,14,17,47,11.30
2015,04,14,17,48,11.30
2015,04,14,17,49,11.30
2015,04,14,17,50,11.30
2015,04,14,17,51,11.30
2015,04,14,17,52,11.40
2015,04,14,17,53,11.30
2015,04,14,17,54,11.30
2015,04,14,17,55,11.30
2015,04,14,17,56,11.30
2015,04,14,17,57,11.30
2015,04,14,17,58,11.30
2015,04,14,17,59,11.30
2015,04,14,18,00,11.20
2015,04,14,18,01,11.20
2015,04,14,18,02,11.20
2015,04,14,18,03,11.20
2015,04,14,18,04,11.30
2015,04,14,18,05,11.30
2015,04,14,18,06,11.30
2015,04,14,18,07,11.30
2015,04,14,18,08,11.30
2015,04,14,18,09,11.40
2015,04,14,18,10,11.40
2015,04,14,18,11,11.40
2015,04,14,18,12,11.40
2015,04,14,18,13,11.40
2015,04,14,18,14,11.30
2015,04,14,18,15,11.30
2015,04,14,18,16,11.20
2015,04,14,18,17,11.20
2015,04,14,18,18,11.20
2015,04,14,18,19,11.20
2015,04,14,18,20,11.10
2015,04,14,18,21,11.10
2015,04,14,18,22,11.10
2015,04,14,18,23,11.10
2015,04,14,18,24,11.10
2015,04,14,18,25,11.10
2015,04,14,18,26,11.20
2015,04,14,18,27,11.20
2015,04,14,18,28,11.20
2015,04,14,18,29,11.20
2015,04,14,18,30,11.20
2015,04,14,18,31,11.20
2015,04,14,18,32,11.20
2015,04,14,18,33,11.10
2015,04,14,18,34,11.10
2015,04,14,18,35,11.00
2015,04,14,18,36,10.90
2015,04,14,18,37,10.90
2015,04,14,18,38,10.80
2015,04,14,18,39,10.80
2015,04,14,18,40,10.70
2015,04,14,18,41,10.70
2015,04,14,18,42,10.70
2015,04,14,18,43,10.70
2015,04,14,18,44,10.70
2015,04,14,18,45,10.70
2015,04,14,18,46,10.70
2015,04,14,18,47,10.70
2015,04,14,18,48,10.70
2015,04,14,18,49,10.70
2015,04,14,18,50,10.70
2015,04,14,18,51,10.70
2015,04,14,18,52,10.70
2015,04,14,18,53,10.70